Total_Precipitation_Accumulation
0.15 0.17 0.18 0.20 0.22 0.24 0.32 0.30 0.35 0.32 0.34 0.37 0.36 0.36 0.37 0.38 0.38 0.40 0.40 0.40 0.42 0.43 0.51 0.54 0.54 0.51 0.48 0.47 0.53 0.53 0.49 0.49 0.48 0.48 0.52 0.53 0.58 0.65 0.64 0.68 0.94 0.92 0.66 0.33 0.20 0.18 0.20 0.19 0.15 0.19 0.22 0.29 0.36 0.37 0.35 0.26 0.26 0.28 0.28 0.34 0.39 0.45 0.49
0.18 0.18 0.19 0.21 0.22 0.22 0.24 0.32 0.33 0.33 0.37 0.39 0.37 0.37 0.39 0.43 0.47 0.45 0.45 0.43 0.45 0.43 0.45 0.51 0.55 0.52 0.49 0.49 0.58 0.60 0.60 0.57 0.52 0.55 0.55 0.51 0.56 0.62 0.61 0.57 0.74 0.83 0.69 0.53 0.30 0.23 0.19 0.20 0.14 0.19 0.17 0.23 0.27 0.33 0.37 0.37 0.33 0.30 0.30 0.31 0.34 0.40 0.40
0.21 0.21 0.21 0.21 0.20 0.20 0.23 0.24 0.27 0.26 0.32 0.36 0.37 0.37 0.36 0.37 0.40 0.41 0.42 0.42 0.41 0.40 0.41 0.47 0.51 0.52 0.49 0.50 0.61 0.62 0.63 0.60 0.60 0.57 0.55 0.54 0.47 0.48 0.47 0.50 0.61 0.76 0.73 0.56 0.45 0.29 0.26 0.24 0.21 0.21 0.22 0.21 0.26 0.28 0.26 0.36 0.40 0.39 0.38 0.36 0.36 0.38 0.36
0.20 0.21 0.21 0.23 0.23 0.28 0.23 0.24 0.22 0.25 0.28 0.30 0.29 0.33 0.37 0.34 0.33 0.35 0.38 0.41 0.40 0.40 0.44 0.48 0.52 0.52 0.51 0.57 0.62 0.63 0.63 0.66 0.68 0.68 0.65 0.59 0.52 0.49 0.44 0.39 0.42 0.51 0.65 0.57 0.53 0.38 0.32 0.26 0.24 0.22 0.19 0.20 0.22 0.29 0.34 0.35 0.41 0.41 0.42 0.39 0.42 0.38 0.42
0.20 0.22 0.23 0.23 0.22 0.20 0.20 0.21 0.21 0.22 0.23 0.24 0.24 0.27 0.29 0.31 0.33 0.34 0.35 0.36 0.39 0.43 0.46 0.47 0.48 0.47 0.48 0.53 0.64 0.64 0.67 0.68 0.71 0.75 0.76 0.76 0.68 0.66 0.60 0.55 0.53 0.54 0.54 0.66 0.59 0.46 0.31 0.25 0.24 0.24 0.23 0.22 0.27 0.30 0.34 0.37 0.41 0.45 0.49 0.48 0.45 0.42 0.41
0.24 0.24 0.23 0.22 0.22 0.22 0.24 0.22 0.23 0.23 0.27 0.23 0.21 0.21 0.22 0.24 0.25 0.25 0.28 0.31 0.33 0.35 0.39 0.43 0.43 0.42 0.44 0.48 0.56 0.60 0.58 0.66 0.75 0.79 0.78 0.80 0.81 0.82 0.78 0.79 0.77 0.72 0.73 0.72 0.67 0.55 0.43 0.29 0.27 0.27 0.27 0.26 0.29 0.31 0.34 0.41 0.44 0.42 0.49 0.55 0.57 0.55 0.50
0.25 0.24 0.24 0.23 0.23 0.23 0.23 0.22 0.22 0.22 0.23 0.23 0.22 0.24 0.24 0.24 0.24 0.23 0.24 0.24 0.25 0.25 0.27 0.31 0.33 0.35 0.37 0.43 0.47 0.50 0.51 0.53 0.55 0.67 0.73 0.76 0.79 0.79 0.86 0.98 0.99 0.92 0.87 0.84 0.81 0.74 0.54 0.44 0.37 0.29 0.33 0.25 0.23 0.26 0.28 0.35 0.43 0.50 0.47 0.50 0.51 0.53 0.51
0.26 0.24 0.24 0.25 0.24 0.23 0.22 0.23 0.22 0.22 0.24 0.24 0.24 0.25 0.27 0.26 0.30 0.31 0.29 0.25 0.22 0.22 0.25 0.25 0.26 0.27 0.27 0.28 0.31 0.35 0.37 0.41 0.50 0.55 0.65 0.64 0.68 0.77 0.91 0.99 0.97 0.94 0.94 0.95 0.90 0.79 0.67 0.53 0.43 0.34 0.28 0.28 0.30 0.34 0.35 0.31 0.37 0.46 0.46 0.47 0.48 0.47 0.51
0.28 0.28 0.29 0.25 0.25 0.26 0.23 0.25 0.24 0.24 0.29 0.30 0.29 0.32 0.39 0.38 0.40 0.37 0.35 0.32 0.31 0.28 0.26 0.24 0.24 0.23 0.27 0.24 0.24 0.26 0.29 0.33 0.40 0.50 0.61 0.61 0.63 0.75 0.87 0.94 0.94 0.97 0.99 0.97 0.90 0.82 0.62 0.57 0.48 0.41 0.36 0.33 0.35 0.41 0.42 0.32 0.31 0.38 0.35 0.36 0.38 0.44 0.48
0.29 0.32 0.41 0.30 0.28 0.27 0.29 0.28 0.26 0.26 0.36 0.38 0.50 0.62 0.66 0.68 0.65 0.60 0.58 0.54 0.48 0.40 0.34 0.30 0.27 0.24 0.21 0.22 0.24 0.27 0.30 0.36 0.41 0.45 0.52 0.62 0.66 0.73 0.86 0.93 0.97 0.94 0.88 0.88 0.94 0.82 0.68 0.66 0.55 0.43 0.36 0.33 0.28 0.24 0.22 0.25 0.30 0.36 0.33 0.29 0.35 0.37 0.45
0.39 0.37 0.36 0.35 0.36 0.38 0.36 0.35 0.30 0.30 0.48 0.69 0.91 0.94 0.99 0.94 0.84 0.72 0.65 0.58 0.52 0.46 0.35 0.29 0.26 0.25 0.24 0.24 0.25 0.27 0.31 0.36 0.38 0.46 0.52 0.53 0.57 0.70 0.87 1.04 1.09 0.99 0.87 0.88 0.85 0.74 0.63 0.59 0.51 0.38 0.35 0.33 0.29 0.25 0.27 0.29 0.30 0.36 0.37 0.41 0.45 0.51 0.43
0.45 0.37 0.36 0.37 0.37 0.39 0.38 0.39 0.34 0.41 0.70 0.88 1.16 1.43 1.33 1.17 1.02 0.86 0.74 0.64 0.58 0.51 0.45 0.39 0.35 0.32 0.30 0.30 0.29 0.30 0.32 0.37 0.41 0.47 0.49 0.54 0.62 0.71 0.84 1.01 1.01 1.06 1.01 0.88 0.89 0.85 0.71 0.65 0.52 0.36 0.31 0.30 0.31 0.34 0.32 0.33 0.37 0.43 0.47 0.48 0.47 0.43 0.42
0.42 0.42 0.43 0.43 0.49 0.44 0.41 0.41 0.38 0.51 0.79 0.98 1.33 1.66 1.74 1.39 1.15 0.97 0.77 0.64 0.56 0.50 0.45 0.42 0.43 0.41 0.38 0.33 0.29 0.32 0.32 0.35 0.36 0.39 0.44 0.51 0.56 0.59 0.75 0.98 1.23 1.15 0.97 1.06 1.03 0.98 0.79 0.59 0.54 0.54 0.38 0.28 0.32 0.39 0.46 0.41 0.47 0.49 0.50 0.51 0.48 0.42 0.34
0.49 0.49 0.54 0.55 0.57 0.55 0.53 0.50 0.48 0.59 0.92 1.25 1.52 1.89 2.09 1.52 1.27 1.02 0.83 0.67 0.57 0.49 0.44 0.41 0.42 0.43 0.40 0.34 0.32 0.33 0.34 0.35 0.38 0.39 0.42 0.48 0.53 0.56 0.55 0.66 0.73 0.74 0.71 0.80 0.95 1.05 0.97 0.62 0.57 0.49 0.45 0.56 0.48 0.53 0.63 0.63 0.61 0.56 0.57 0.57 0.55 0.42 0.38
0.57 0.58 0.61 0.63 0.72 0.69 0.68 0.58 0.56 0.78 1.14 1.36 1.63 1.92 2.41 1.73 1.42 1.11 0.85 0.67 0.58 0.54 0.49 0.44 0.42 0.41 0.39 0.35 0.35 0.35 0.35 0.38 0.42 0.44 0.50 0.48 0.46 0.43 0.40 0.38 0.37 0.45 0.60 0.69 0.65 0.73 0.76 0.64 0.52 0.46 0.43 0.42 0.52 0.69 0.73 0.67 0.63 0.57 0.60 0.63 0.58 0.57 0.53
0.50 0.52 0.53 0.53 0.57 0.63 0.62 0.50 0.55 0.83 1.13 1.33 1.68 2.17 2.01 1.80 1.37 1.07 0.86 0.68 0.58 0.53 0.47 0.43 0.45 0.47 0.46 0.40 0.37 0.35 0.55 0.49 0.51 0.60 0.63 0.56 0.45 0.37 0.33 0.31 0.29 0.43 0.54 0.48 0.62 0.68 0.65 0.62 0.59 0.76 0.75 0.75 0.75 0.70 0.68 0.70 0.74 0.77 0.86 0.95 0.98 0.82 0.54
0.39 0.42 0.47 0.49 0.50 0.52 0.48 0.45 0.49 0.68 1.01 1.19 1.55 2.28 2.31 1.92 1.38 1.02 0.80 0.63 0.54 0.51 0.47 0.43 0.43 0.45 0.47 0.43 0.38 0.37 0.62 0.79 0.88 0.91 0.86 0.76 0.61 0.47 0.40 0.34 0.24 0.44 0.86 1.33 1.68 1.92 1.66 1.53 1.54 1.66 1.86 1.84 1.77 1.21 1.13 1.20 1.31 1.15 0.86 0.90 0.94 0.69 0.45
0.41 0.41 0.43 0.47 0.48 0.47 0.50 0.44 0.43 0.57 0.80 1.03 1.41 1.89 1.89 1.75 1.47 1.06 0.83 0.71 0.60 0.55 0.53 0.44 0.46 0.45 0.46 0.46 0.39 0.53 0.77 1.06 1.12 1.33 1.12 0.94 0.81 0.67 0.55 0.38 0.23 0.21 0.26 0.68 1.21 1.52 1.61 1.81 1.59 1.54 1.54 1.76 1.73 1.61 1.14 1.35 1.52 1.02 0.66 0.74 0.70 0.65 0.40
0.41 0.40 0.40 0.42 0.43 0.45 0.50 0.48 0.43 0.48 0.73 1.01 1.45 1.70 1.75 1.65 1.40 1.16 0.90 0.79 0.71 0.59 0.49 0.42 0.39 0.45 0.52 0.48 0.48 0.81 1.06 1.56 1.34 1.39 1.18 0.88 0.81 0.79 0.67 0.44 0.29 0.25 0.27 0.29 0.37 0.47 0.55 0.67 0.87 0.82 0.83 0.73 0.84 0.96 1.10 1.03 1.06 0.89 0.84 0.87 0.70 0.58 0.52
0.34 0.35 0.37 0.39 0.47 0.49 0.49 0.48 0.46 0.49 0.64 1.00 1.36 1.48 1.47 1.42 1.28 1.18 1.01 0.89 0.77 0.76 0.66 0.53 0.47 0.42 0.46 0.74 1.02 1.01 1.39 1.57 2.12 1.57 1.47 1.14 1.04 0.91 0.65 0.38 0.30 0.31 0.34 0.35 0.35 0.34 0.30 0.36 0.41 0.53 0.67 0.68 0.63 0.58 0.65 0.85 0.71 0.75 0.79 0.81 0.74 0.60 0.54
0.34 0.38 0.43 0.42 0.43 0.48 0.49 0.49 0.46 0.41 0.56 0.94 1.10 1.11 1.52 1.37 1.17 0.96 0.89 0.87 0.83 0.71 0.63 0.57 0.49 0.45 0.40 0.50 0.77 1.01 1.35 1.60 2.05 2.04 1.51 1.37 1.19 0.86 0.62 0.53 0.59 0.52 0.42 0.45 0.40 0.35 0.33 0.33 0.37 0.48 0.58 0.67 0.62 0.58 0.57 0.69 0.51 0.55 0.50 0.64 0.74 0.71 0.63
0.42 0.41 0.35 0.32 0.36 0.42 0.43 0.42 0.40 0.44 0.50 0.75 0.98 1.10 1.33 1.29 1.14 0.90 0.96 0.99 0.79 0.61 0.52 0.44 0.42 0.43 0.43 0.47 0.69 1.09 1.63 1.81 2.09 2.25 1.54 1.34 1.55 1.55 1.32 0.78 0.66 0.56 0.53 0.48 0.45 0.43 0.41 0.39 0.39 0.42 0.47 0.58 0.62 0.57 0.66 0.58 0.51 0.42 0.37 0.34 0.37 0.48 0.55
0.41 0.37 0.34 0.33 0.37 0.39 0.38 0.37 0.37 0.47 0.42 0.51 0.79 0.95 1.14 1.28 1.31 1.23 0.95 0.91 0.81 0.61 0.48 0.41 0.41 0.40 0.46 0.60 1.11 1.47 1.80 1.90 2.07 1.83 1.70 1.82 1.65 1.53 1.28 1.17 1.13 0.94 0.80 0.67 0.55 0.50 0.53 0.46 0.38 0.40 0.39 0.39 0.48 0.48 0.41 0.46 0.45 0.43 0.41 0.41 0.34 0.30 0.32
0.41 0.34 0.35 0.37 0.38 0.37 0.35 0.34 0.39 0.40 0.35 0.38 0.54 0.83 1.11 1.14 1.28 1.22 0.95 0.84 0.72 0.60 0.54 0.49 0.46 0.51 0.68 1.05 1.11 1.26 1.52 1.73 1.56 1.52 1.76 1.83 1.59 1.17 1.12 1.21 1.27 1.20 1.08 0.87 0.70 0.62 0.52 0.44 0.32 0.31 0.31 0.32 0.28 0.38 0.44 0.45 0.47 0.42 0.41 0.41 0.36 0.30 0.29
0.33 0.35 0.36 0.36 0.36 0.37 0.36 0.36 0.38 0.34 0.34 0.35 0.40 0.53 0.73 0.85 0.98 0.92 0.81 0.72 0.60 0.57 0.56 0.54 0.63 0.77 0.88 0.99 1.10 1.16 1.08 1.11 1.02 1.06 1.33 1.21 1.19 1.21 1.16 1.22 1.10 0.97 0.93 1.01 0.93 0.70 0.49 0.34 0.27 0.25 0.24 0.24 0.29 0.35 0.48 0.54 0.56 0.54 0.46 0.44 0.41 0.38 0.31
0.37 0.35 0.33 0.34 0.33 0.37 0.40 0.43 0.37 0.31 0.33 0.37 0.40 0.43 0.52 0.64 0.63 0.64 0.60 0.63 0.56 0.45 0.42 0.46 0.61 0.51 0.53 0.59 0.65 0.75 0.89 1.10 0.84 0.74 0.73 0.85 0.98 0.99 1.11 1.12 0.99 0.79 0.75 0.74 0.61 0.54 0.49 0.37 0.28 0.30 0.34 0.30 0.34 0.42 0.49 0.55 0.60 0.66 0.62 0.54 0.55 0.52 0.48
0.39 0.39 0.40 0.40 0.38 0.41 0.42 0.42 0.33 0.32 0.35 0.43 0.51 0.52 0.53 0.57 0.56 0.59 0.52 0.50 0.56 0.52 0.45 0.43 0.46 0.46 0.50 0.51 0.54 0.65 0.75 0.70 0.59 0.62 0.79 0.68 0.64 0.87 0.97 1.21 0.87 0.68 0.65 0.56 0.48 0.45 0.38 0.36 0.44 0.41 0.50 0.52 0.48 0.48 0.44 0.43 0.47 0.56 0.56 0.51 0.49 0.48 0.48
0.57 0.61 0.62 0.65 0.59 0.58 0.49 0.40 0.34 0.34 0.44 0.62 0.66 0.66 0.59 0.57 0.57 0.64 0.64 0.50 0.49 0.50 0.48 0.50 0.51 0.54 0.53 0.62 0.66 0.67 0.67 0.66 0.64 0.56 0.51 0.51 0.57 0.66 0.74 0.85 0.85 0.81 0.80 0.66 0.63 0.66 0.56 0.59 0.59 0.63 0.58 0.51 0.48 0.39 0.35 0.37 0.44 0.46 0.54 0.59 0.57 0.68 0.62
1.02 0.92 0.92 0.80 0.77 0.83 0.72 0.58 0.56 0.52 0.60 0.73 0.76 0.78 0.78 0.79 0.72 0.66 0.65 0.53 0.53 0.60 0.59 0.54 0.54 0.53 0.51 0.49 0.48 0.51 0.52 0.50 0.48 0.46 0.48 0.55 0.58 0.55 0.57 0.59 0.74 0.81 0.71 0.59 0.64 0.72 0.70 0.70 0.68 0.61 0.53 0.54 0.54 0.45 0.38 0.38 0.46 0.48 0.50 0.59 0.69 0.74 0.59
1.28 1.23 1.17 1.02 0.77 0.79 0.95 0.88 0.73 0.66 0.89 0.96 1.01 1.16 0.98 0.90 0.97 0.87 0.73 0.62 0.58 0.56 0.57 0.51 0.46 0.43 0.42 0.40 0.37 0.39 0.38 0.38 0.39 0.41 0.42 0.46 0.52 0.51 0.53 0.55 0.59 0.63 0.60 0.56 0.65 0.62 0.67 0.64 0.61 0.55 0.52 0.53 0.53 0.49 0.43 0.40 0.49 0.53 0.55 0.65 0.77 0.76 0.65
1.17 1.24 1.04 0.99 1.09 0.91 0.66 0.61 0.57 0.58 0.86 1.01 1.25 1.25 1.12 1.18 1.07 1.00 0.90 0.74 0.68 0.60 0.51 0.46 0.40 0.38 0.35 0.33 0.33 0.34 0.33 0.34 0.36 0.36 0.37 0.40 0.43 0.44 0.47 0.50 0.52 0.57 0.56 0.56 0.59 0.62 0.66 0.61 0.59 0.53 0.45 0.45 0.42 0.42 0.46 0.52 0.57 0.53 0.59 0.63 0.61 0.62 0.54
0.94 1.04 1.17 0.99 1.04 1.16 0.93 0.74 0.69 0.70 1.01 1.19 1.38 1.40 1.19 1.16 1.20 1.11 0.95 0.76 0.73 0.66 0.52 0.42 0.37 0.36 0.35 0.32 0.32 0.30 0.29 0.32 0.37 0.38 0.39 0.37 0.34 0.32 0.32 0.37 0.44 0.50 0.52 0.53 0.54 0.54 0.58 0.63 0.63 0.58 0.50 0.44 0.40 0.40 0.42 0.49 0.59 0.65 0.75 0.71 0.63 0.57 0.49
0.59 0.68 0.82 0.87 1.04 1.16 1.13 0.91 0.87 0.88 1.06 1.15 1.26 1.20 0.98 0.97 0.96 0.82 0.75 0.64 0.54 0.49 0.45 0.40 0.37 0.36 0.34 0.34 0.32 0.31 0.32 0.35 0.38 0.34 0.33 0.32 0.33 0.30 0.27 0.27 0.29 0.36 0.43 0.46 0.48 0.50 0.53 0.63 0.57 0.61 0.58 0.56 0.47 0.45 0.44 0.40 0.42 0.44 0.48 0.56 0.64 0.58 0.51
0.44 0.41 0.45 0.48 0.62 0.76 0.82 0.74 0.72 0.73 0.74 0.83 0.92 0.91 0.92 0.94 0.81 0.70 0.73 0.61 0.54 0.46 0.43 0.37 0.35 0.34 0.35 0.35 0.36 0.36 0.36 0.37 0.38 0.32 0.30 0.26 0.25 0.26 0.26 0.23 0.25 0.30 0.34 0.37 0.41 0.45 0.44 0.48 0.51 0.59 0.61 0.64 0.57 0.50 0.44 0.45 0.41 0.40 0.47 0.54 0.51 0.47 0.45
0.34 0.31 0.36 0.46 0.48 0.60 0.65 0.56 0.53 0.63 0.75 0.84 0.86 0.86 0.99 0.80 0.72 0.73 0.57 0.43 0.41 0.42 0.40 0.37 0.34 0.33 0.31 0.31 0.33 0.34 0.35 0.35 0.35 0.31 0.29 0.28 0.25 0.23 0.23 0.26 0.25 0.25 0.27 0.29 0.32 0.36 0.39 0.40 0.45 0.49 0.50 0.51 0.52 0.53 0.53 0.47 0.44 0.44 0.43 0.43 0.46 0.43 0.40
0.37 0.33 0.32 0.41 0.40 0.44 0.57 0.58 0.53 0.56 0.72 0.91 0.91 0.91 0.81 0.76 0.63 0.50 0.44 0.38 0.35 0.36 0.38 0.37 0.37 0.36 0.35 0.37 0.38 0.38 0.36 0.35 0.35 0.35 0.34 0.32 0.30 0.27 0.26 0.27 0.27 0.26 0.25 0.25 0.26 0.29 0.31 0.35 0.39 0.44 0.50 0.50 0.47 0.45 0.42 0.39 0.38 0.38 0.39 0.40 0.41 0.45 0.42